[ ตารางข้อมูล ] [ Min-Max ] [ วันนี้4 ] [ วันนี้2 ] [ เทียบ3วัน A ] [ เทียบ4วัน B ]   

วันนี้2   [ ◀ ช่วงเก่ากว่า ] [ ช่วงที่ 249 ] [ ช่วงใหม่กว่า ▶ ] [ ล่าสุด ]    [ 3 ชั่วโมง ] [ 6 ชั่วโมง ] [ 12 ชั่วโมง ] [ 24 ชั่วโมง ]   วันนี้2

อุณภูมิตู้ Knockdown4529  ราย 3 ชั่วโมง  ที่วัดได้ ในช่วงวันเวลา 05/04/2026 (19:33) ถึง 05/04/2026 (22:33) 
ความชื้นในตู้ Knockdown4529  ราย 3 ชั่วโมง  ที่วัดได้ ในช่วงวันเวลา 05/04/2026 (19:33) ถึง 05/04/2026 (22:33) 

 
DS18B20SHTC3 
IDDate d/m/Y & Timedata1
สูง
data2
ต่ำ
data3
นอก
temp
pcb
hum
pcb
Time
 9153  05/04/2026 22:32:47  29.7  29.8  28.2  29.6  69.5  22:32 
 9152  05/04/2026 22:28:05  29.7  29.8  28.2  29.7  69.5  22:28 
 9151  05/04/2026 22:23:23  29.8  29.8  28.3  29.7  69.5  22:23 
 9150  05/04/2026 22:18:41  29.7  29.8  28.4  29.6  69.5  22:18 
 9149  05/04/2026 22:13:59  29.8  29.8  28.4  29.6  69.4  22:13 
 9148  05/04/2026 22:09:17  29.8  29.9  28.5  29.7  69.4  22:09 
 9147  05/04/2026 22:04:36  29.8  29.9  28.5  29.9  69.5  22:04 
 9146  05/04/2026 21:59:53  29.8  29.9  28.5  29.9  69.4  21:59 
 9145  05/04/2026 21:55:11  29.8  29.9  28.5  29.9  69.4  21:55 
 9144  05/04/2026 21:50:30  29.9  29.9  28.5  29.8  69.4  21:50 
 9143  05/04/2026 21:45:48  29.9  29.9  28.7  30.1  69.5  21:45 
 9142  05/04/2026 21:41:07  29.9  29.9  28.7  29.7  69.5  21:41 
 9141  05/04/2026 21:36:25  29.9  29.9  28.7  29.9  69.6  21:36 
 9140  05/04/2026 21:31:43  29.9  29.9  28.8  29.6  69.5  21:31 
 9139  05/04/2026 21:27:01  29.9  29.9  28.9  29.8  69.6  21:27 
 9138  05/04/2026 21:22:19  29.8  29.8  28.9  29.9  69.8  21:22 
 9137  05/04/2026 21:17:37  29.8  29.6  29.0  29.6  69.9  21:17 
 9136  05/04/2026 21:12:55  29.8  29.6  29.2  29.7  69.9  21:12 
 9135  05/04/2026 21:08:14  29.8  29.6  29.2  29.8  70.2  21:08 
 9134  05/04/2026 21:03:32  29.8  29.6  29.2  29.9  70.1  21:03 
 9133  05/04/2026 20:58:50  29.9  29.6  29.2  29.8  69.9  20:58 
 9132  05/04/2026 20:54:08  29.9  29.8  29.4  29.7  69.6  20:54 
 9131  05/04/2026 20:49:26  29.9  29.8  29.4  29.8  69.6  20:49 
 9130  05/04/2026 20:44:44  29.9  29.8  29.4  30.0  69.5  20:44 

Data every 5 minute.


ใช้เวลาประมวลผล 0.00192 วินาที